sat.trackr.live / text

‹ back to catalog

TJS-3

NORAD 43874 · 2018-110A

PAYLOAD ACTIVE UNKNOWN

§ Identity

Operator
Country
PRC
Launch date
2018-12-24
Launch site
XICLF
Launch vehicle
Mass (kg)
RCS (m²)

Purposes: comms

External: N2YO · Heavens-Above · Gunter

§ Orbital elements

Epoch: 2026-05-24T18:20:45.475008Z

Period
1,436.14 min
Inclination
2.4869°
Eccentricity
0.0001281
Mean motion
1.00268621 rev/d
Perigee alt
35,782.1 km
Apogee alt
35,792.9 km
Semi-major
42,165.6 km
B*
0.0000e+0
RAAN
80.7630°
Arg perigee
48.4318°
Mean anomaly
176.5139°
Rev number
2,718

§ Raw data

TJS-31 43874U 18110A   26144.76441522 -.00000220  00000+0  00000+0 0  99982 43874   2.4869  80.7630 0001281  48.4318 176.5139  1.00268621 27187

JSON: /api/v1/satellites/43874 · /tle

For live sub-satellite position, see the globe view (requires WebGL).

§ Visibility from observer

Set your observer location to see the next 7 days of passes ≥ 10°. The values pass through the URL so the page stays shareable.

No JS? Fill the form by hand. The geolocation button needs JavaScript.